Deer Park, WA
on Sunday, December 9, 2012

Sunday
Previous Day Next Day
Daily Summary
 ActualAverageRecord
Temperature
Mean Temperature °F 26°F  
Max Temperature 28°F 32°F 45°F (2014)
Min Temperature 5°F 20°F 5°F (2012)
Degree Days
Heating Degree Days 48 39  
Month to date heating degree days 277 341  
Since 1 July heating degree days 2014 2344  
Cooling Degree Days 0 0  
Month to date cooling degree days 0 0  
Year to date cooling degree days 232 187  
Moisture
Dew Point 21°F   
Average Humidity 92    
Maximum Humidity 100    
Minimum Humidity 83    
Precipitation
Precipitation 0.07 in 0.10 in 0.64 in (1999)
Month to date precipitation 1.47 0.80  
Year to date precipitation 25.58 20.19  
Wind
Wind Speed 1 mph   
Max Wind Speed 5 mph   
Max Gust Speed 5 mph   
Visibility 5 miles   
Events Snow   

Key: T is trace of precipitation, MM is missing value
Source: NWS Daily Summary
Time(PST)TemperatureDew PointHumidity Pressure Visibility Wind DirectionWind SpeedGust SpeedPrecipitationEvents Conditions
12:53 AM 7.0°F 3.9°F 87% 30.38 in 10.0 miles Calm Calm - N/A   Clear
1:24 AM 6.8°F 3.2°F 85% 30.29 in 10.0 miles North 3.5 mph - N/A   Partly Cloudy
1:53 AM 8.1°F 6.1°F 92% 30.41 in 10.0 miles Calm Calm - N/A   Clear
2:53 AM 8.1°F 5.0°F 87% 30.42 in 10.0 miles Calm Calm - N/A   Clear
3:53 AM 9.0°F 7.0°F 92% 30.43 in 10.0 miles Calm Calm - N/A   Clear
4:53 AM 10.0°F 7.0°F 87% 30.45 in 10.0 miles Calm Calm - N/A   Clear
5:53 AM 12.0°F 9.0°F 88% 30.47 in 10.0 miles NNW 3.5 mph - N/A   Clear
6:53 AM 10.0°F 7.0°F 87% 30.49 in 10.0 miles Calm Calm - N/A   Clear
7:53 AM 14.0°F 12.0°F 92% 30.49 in 10.0 miles Calm Calm - N/A   Mostly Cloudy
8:53 AM 17.1°F 15.1°F 92% 30.47 in 10.0 miles Calm Calm - N/A   Mostly Cloudy
9:53 AM 19.9°F 18.0°F 92% 30.50 in 10.0 miles North 3.5 mph - N/A   Overcast
10:43 AM 21.2°F 19.4°F 93% 30.36 in 10.0 miles Calm Calm - N/A   Overcast
10:53 AM 21.9°F 19.0°F 89% 30.47 in 10.0 miles Calm Calm - N/A   Overcast
11:01 AM 21.2°F 19.4°F 93% 30.36 in 1.8 miles Calm Calm - 0.00 in Snow Light Snow
11:13 AM 21.2°F 21.2°F 100% 30.35 in 0.8 miles Calm Calm - 0.01 in Snow Light Snow
11:20 AM 23.0°F 21.2°F 93% 30.34 in 0.8 miles Calm Calm - 0.01 in Snow Light Snow
11:27 AM 21.2°F 21.2°F 100% 30.34 in 1.8 miles Calm Calm - 0.01 in Snow Light Snow
11:35 AM 21.2°F 21.2°F 100% 30.34 in 2.5 miles Calm Calm - 0.01 in Snow Light Snow
11:37 AM 21.2°F 21.2°F 100% 30.33 in 3.0 miles Calm Calm - 0.01 in Snow Light Snow
11:45 AM 23.0°F 21.2°F 93% 30.33 in 6.0 miles Calm Calm - 0.01 in Snow Light Snow
11:53 AM 24.1°F 21.9°F 91% 30.44 in 7.0 miles Calm Calm - 0.01 in   Overcast
12:26 PM 24.8°F 21.2°F 86% 30.32 in 1.8 miles Calm Calm - 0.00 in Snow Light Snow
12:39 PM 24.8°F 21.2°F 86% 30.32 in 1.0 miles NW 3.5 mph - 0.01 in Snow Light Snow
12:53 PM 25.0°F 23.0°F 92% 30.43 in 3.0 miles Calm Calm - 0.01 in Snow Light Snow
1:21 PM 24.8°F 21.2°F 86% 30.29 in 2.5 miles Calm Calm - 0.00 in Snow Light Snow
1:38 PM 24.8°F 21.2°F 86% 30.29 in 6.0 miles Calm Calm - 0.00 in   Overcast
2:40 PM 24.8°F 23.0°F 93% 30.28 in 4.0 miles NW 3.5 mph - 0.01 in   Overcast
2:53 PM 25.0°F 23.0°F 92% 30.39 in 6.0 miles NW 3.5 mph - 0.01 in   Overcast
3:11 PM 24.8°F 23.0°F 93% 30.28 in 2.0 miles Calm Calm - 0.00 in Snow Light Snow
3:18 PM 24.8°F 24.8°F 100% 30.27 in 1.2 miles Calm Calm - 0.00 in Snow Light Snow
3:34 PM 26.6°F 24.8°F 93% 30.27 in 3.0 miles Calm Calm - 0.01 in   Overcast
3:53 PM 26.1°F 24.1°F 92% 30.36 in 9.0 miles Calm Calm - 0.02 in   Overcast
4:07 PM 26.6°F 24.8°F 93% 30.23 in 9.0 miles Calm Calm - N/A   Overcast
4:33 PM 26.6°F 24.8°F 93% 30.23 in 8.0 miles Calm Calm - N/A   Overcast
4:43 PM 26.6°F 24.8°F 93% 30.23 in 6.0 miles Calm Calm - N/A   Overcast
4:53 PM 26.1°F 25.0°F 96% 30.33 in 7.0 miles Calm Calm - N/A   Overcast
5:46 PM 26.6°F 24.8°F 93% 30.22 in 3.0 miles Calm Calm - N/A   Overcast
5:53 PM 26.1°F 26.1°F 100% 30.32 in 3.0 miles Calm Calm - N/A   Overcast
6:27 PM 26.6°F 26.6°F 100% 30.22 in 2.5 miles Calm Calm - N/A   Overcast
6:49 PM 26.6°F 26.6°F 100% 30.22 in 2.5 miles Calm Calm - N/A   Overcast
6:50 PM 26.6°F 26.6°F 100% 30.22 in 2.5 miles Calm Calm - N/A   Overcast
6:53 PM 27.0°F 26.1°F 96% 30.32 in 2.0 miles Calm Calm - N/A   Overcast
7:05 PM 26.6°F 26.6°F 100% 30.20 in 1.5 miles Calm Calm - 0.00 in Snow Light Snow
7:26 PM 26.6°F 26.6°F 100% 30.19 in 2.0 miles Calm Calm - 0.01 in Snow Light Snow
7:41 PM 26.6°F 26.6°F 100% 30.19 in 2.0 miles Calm Calm - 0.01 in Snow Light Snow
7:44 PM 26.6°F 26.6°F 100% 30.19 in 1.8 miles Calm Calm - 0.01 in Snow Light Snow
7:53 PM 27.0°F 26.1°F 96% 30.29 in 1.8 miles Calm Calm - 0.01 in Snow Light Snow
8:53 PM 27.0°F 26.1°F 96% 30.29 in 1.5 miles North 3.5 mph - 0.01 in Snow Light Snow
9:13 PM 28.4°F 26.6°F 93% 30.19 in 2.5 miles Calm Calm - 0.00 in Snow Light Snow
9:27 PM 26.6°F 26.6°F 100% 30.18 in 3.0 miles Calm Calm - 0.00 in   Overcast
9:53 PM 27.0°F 26.1°F 96% 30.27 in 4.0 miles WNW 3.5 mph - 0.00 in   Overcast
10:08 PM 26.6°F 26.6°F 100% 30.18 in 4.0 miles Calm Calm - N/A   Overcast
10:48 PM 26.6°F 26.6°F 100% 30.19 in 5.0 miles NNW 4.6 mph - N/A   Overcast
10:53 PM 27.0°F 26.1°F 96% 30.27 in 6.0 miles Calm Calm - N/A   Overcast
11:24 PM 26.6°F 26.6°F 100% 30.17 in 7.0 miles Calm Calm - N/A   Overcast
11:53 PM 27.0°F 26.1°F 96% 30.25 in 5.0 miles Calm Calm - N/A   Overcast
Moon Phase
Dec. 09 Dec. 13 Dec. 20 Dec. 28 Jan. 04
Sunrise:07:27 AM (PST) Moon Rise:02:52 AM (PST)12/9
Sunset:03:56 PM (PST) Moon Set:01:18 PM (PST)12/9

Copyright © 2014 The Weather Underground, Inc.